User: anonymous   Login
Location: Jetmore
(38.0845°N, 99.8935°W)
Time: 19:46:44
(UTC+00:00)
Language:

Nauka - Orbit

View from above orbital plane
View from above orbital plane
View from above satellite
View from above satellite

Ground track
Ground track

The orbit data is extracted from the following two-line orbital elements,

1 49044U 21066A   21287.53081300  .00005594  00000-0  11084-3 0  9996
2 49044  51.6413 112.6192 0004180 111.0667 297.8505 15.48678783307092
Epoch (UTC): 14 October 2021 12:44:22
Eccentricity: 0.0004180
inclination: 51.6413°
perigee height: 418 km
apogee height: 423 km
right ascension of ascending node: 112.6192°
argument of perigee: 111.0667°
revolutions per day: 15.48678783
mean anomaly at epoch: 297.8505°
orbit number at epoch: 30709

The dashed part of the orbit path shows where the satellite is in the earth's shadow,  

DLR